VCUB1 (56215 NORAD) Tracking and Keplerian Element Data

This shows tracking and keplerian element data for the satellite.

Feedback or suggestion? Click here.




ElementValue
Catalog56215
NameVCUB1
Epoch Orbit2092
Epoch Day239.15277936
Epoch Year2023
RAAN133.4187
Inclination97.394
Eccentricity0.0012852
Argument of Perigee106.1221
Mean Anonmoly254.1433
Mean Motion15.26962822
Decay Rate0.0002108
L11 56215U 23054AP 23239.15277936 .00021080 00000+0 79584-3 0 9998
L22 56215 97.3940 133.4187 0012852 106.1221 254.1433 15.26962822 20929



Live tracking and technical data element details for VCUB1 (NORAD 56215). VCUB1 can be tracked NOW for your location showing map with azimuth and elevation plus other details from your city location.







IsCatalogInMostPopularTable: catalog: 56215, numindb: 11
Update: records affected: 1



GetName: 56215 VCUB1

Hit Count: updated at: Thu, 28 Sep 2023 05:25:27 GMT